Location: *
(50.3440°N, 18.6237°E)
Time: 17:10:44
(UTC+00:00)

Cosmos 1782 - Pass Details

Date: 30 November 2020
Orbit: 537 x 551 km, 82.5° (Epoch: 23 January)

Event Time Altitude Azimuth Distance (km) Brightness Sun altitude
Rises 16:26:09 0° 178° (S) 2,686 6.5 -15.3°
Reaches altitude 10° 16:28:18 10° 174° (S) 1,801 5.6 -15.7°
Maximum altitude 16:32:11 57° 96° (E) 646 2.8 -16.3°
Enters shadow 16:34:56 19° 22° (NNE) 1,354 4.5 -16.7°
